Weather History for International Falls, MN

Change the Weather History Date:

Thursday, September 27, 2012

  Actual Average Record
Temperature  
Mean Temperature 46 °F 49 °F  
Max Temperature 68 °F 60 °F 91 °F (1952)
Min Temperature 23 °F 37 °F 23 °F (1991)
Degree Days  
Heating Degree Days 19 16  
Month to date heating degree days 373 301  
Since 1 July heating degree days 499 482  
Cooling Degree Days 0 0  
Month to date cooling degree days 4 9  
Year to date cooling degree days 222 190  
Moisture  
Dew Point 32 °F    
Average Humidity 63    
Maximum Humidity 100    
Minimum Humidity 26    
Precipitation  
Precipitation 0.00 in 0.10 in 1.08 in (1946)
Month to date precipitation 0.85 2.72  
Year to date precipitation 20.07 19.68  
Snow  
Snow 0.00 in 0.00 in 1.30 in (1993)
Month to date snowfall T 0.1  
Since 1 July snowfall T 0.1  
Since 1 September snowfall T 0.1  
Snow Depth 0.00 in    
Sea Level Pressure  
Sea Level Pressure 30.23 in    
Wind  
Wind Speed 2 mph (SW)    
Max Wind Speed 9 mph    
Max Gust Speed 13 mph    
Visibility 10 miles    
Events      
T = Trace of Precipitation, MM = Missing Value Source: NWS Daily Summary

Daily Weather History Graph

Daily Weather History Graph

Search for Another Location

Airport:

Trip Planner

Search our weather history database for the weather conditions in past years. The results will help you decide how hot, cold, wet, or windy it might be!

Date:

Astronomy

Sep. 27, 2012 Rise Set
Actual Time 7:08 AM CDT 6:59 PM CDT
Civil Twilight 6:36 AM CDT 7:31 PM CDT
Nautical Twilight 6:00 AM CDT 8:07 PM CDT
Astronomical Twilight 5:22 AM CDT 8:44 PM CDT
Moon 5:37 PM CDT (9/27) 4:28 AM CDT (9/27)
Length of Visible Light 12h 54m
Length of Day
11h 51m
Waxing Gibbous, 94% of the Moon is Illuminated
Sep 27
Waxing Gibbous
Sep 29
Full
Oct 8
Last Quarter
Oct 15
New
Oct 21
First Quarter

Hourly Weather History & Observations

Time (CDT) Temp. Windchill Dew Point Humidity Pressure Visibility Wind Dir Wind Speed Gust Speed Precip Events Conditions
12:55 AM 28.9 °F - 27.0 °F 92% 30.25 in 10.0 mi Calm Calm - N/A   Clear
1:55 AM 27.0 °F - 25.0 °F 92% 30.25 in 10.0 mi Calm Calm - N/A   Clear
2:55 AM 27.0 °F - 26.1 °F 96% 30.25 in 10.0 mi Calm Calm - N/A   Clear
3:55 AM 26.1 °F 21.9 °F 24.1 °F 92% 30.25 in 10.0 mi SE 3.5 mph - N/A   Clear
4:55 AM 25.0 °F - 24.1 °F 96% 30.26 in 10.0 mi Calm Calm - N/A   Clear
5:55 AM 25.0 °F - 23.0 °F 92% 30.27 in 10.0 mi Calm Calm - N/A   Clear
6:55 AM 24.1 °F - 23.0 °F 96% 30.28 in 10.0 mi Calm Calm - N/A   Clear
7:55 AM 28.0 °F - 27.0 °F 96% 30.30 in 10.0 mi Calm Calm - N/A   Clear
8:55 AM 39.0 °F 36.8 °F 35.1 °F 86% 30.29 in 10.0 mi Variable 3.5 mph - N/A   Clear
9:55 AM 48.0 °F - 37.9 °F 68% 30.28 in 10.0 mi Variable 3.5 mph - N/A   Clear
10:55 AM 55.9 °F - 37.0 °F 49% 30.27 in 10.0 mi SSW 4.6 mph - N/A   Clear
11:55 AM 60.1 °F - 35.1 °F 39% 30.25 in 10.0 mi SSW 6.9 mph - N/A   Clear
12:55 PM 62.1 °F - 33.1 °F 34% 30.23 in 10.0 mi Variable 4.6 mph - N/A   Clear
1:55 PM 64.9 °F - 33.1 °F 31% 30.21 in 10.0 mi SW 4.6 mph - N/A   Clear
2:55 PM 66.0 °F - 32.0 °F 28% 30.20 in 10.0 mi WNW 6.9 mph - N/A   Clear
3:55 PM 66.9 °F - 32.0 °F 27% 30.19 in 10.0 mi West 6.9 mph - N/A   Clear
4:55 PM 66.0 °F - 30.9 °F 27% 30.18 in 10.0 mi Calm Calm - N/A   Clear
5:55 PM 62.1 °F - 37.9 °F 41% 30.18 in 10.0 mi Calm Calm - N/A   Mostly Cloudy
6:55 PM 53.1 °F - 41.0 °F 64% 30.18 in 10.0 mi Calm Calm - N/A   Scattered Clouds
7:55 PM 43.0 °F - 37.9 °F 82% 30.18 in 10.0 mi Calm Calm - N/A   Clear
8:55 PM 42.1 °F - 37.0 °F 82% 30.18 in 10.0 mi Calm Calm - N/A   Mostly Cloudy
9:55 PM 41.0 °F - 37.0 °F 86% 30.18 in 10.0 mi Calm Calm - N/A   Partly Cloudy
10:55 PM 39.0 °F - 36.0 °F 89% 30.17 in 10.0 mi Calm Calm - N/A   Clear
11:55 PM 35.6 °F - 33.8 °F 93% 30.15 in 10.0 mi Calm Calm - N/A   Clear